CZ-6A DEB

Satellite information

Favourite Embed

Satellite Type and Status

DEBRISIN ORBIT

Key statistics

Satellite CZ-6A DEB at a glance.

Uptime

913

Days in orbit

Revolutions

≈ 14.3

Per day

Orbit

SSO

Sun Synchronous Orbit

Inclination

98.8

Latest

Satellite identification and parameters

Extended collection of information and parameters for CZ-6A DEB.

Object identification

Identified? True

Debris? True

Object name: CZ-6A DEB

International designator: 2022-151FV

Object number (NORAD): 54445

Object ID (CCSDS): 54445

Country: PEOPLES REPUBLIC OF CHINA (PRC)

Current information (Y/N): Y

RCS size: SMALL

Orbital parameters

Period: 100.511 minutes

Inclination: 98.7788 deg

SMA: 7160.927 km

Apoapsis: 822.115 km

Periapsis: 743.47 km

RAAN: 165.9713 deg

Eccentricy: 0.0054912

Argument of periapsis: 88.0671 deg

Mean anomaly: 272.68 deg

Mean motion: 14.32678841 rev/day

Mean motion (dot): 0.00001161 rev/day2

B* drag term: 0.00043616 1/REarth

Two-line elements (TLE)

Creation date: May 12, 2025, 2:31 a.m.

Reference frame: TEME

Reference center: EARTH

Epoch: May 11, 2025, 2:57 p.m. UTC

TLE line 0: 0 CZ-6A DEB

TLE line 1: 1 54445U 22151FV 25131.62332130 .00001161 00000-0 43616-3 0 9997

TLE line 2: 2 54445 98.7788 165.9713 0054912 88.0671 272.6800 14.32678841130108

Live tracking on map

Real-time ground track for satellite CZ-6A DEB.

In-orbit conjunctions

A list of the most updated potential collisions computed for object CZ-6A DEB.

Target Orbit TCA Probability of collision Miss distance Type
COSMOS 2251 DEB LEO 2025-04-11 13:11:05 0.000232025 416.0 (m) DEBRIS
COSMOS 2251 DEB LEO 2024-08-01 13:22:30 0.0002456451 129.0 (m) DEBRIS

Associated space launch

Chinese satellite reported for atmospheric/ocean/environmental/spatial parameter research purposes, details TBD.

CZ-6A DEB was lifted into orbit during the mission ‘Long March 6A | Yunhai 3’, on board a Long March 6A space rocket.

The launch took place on Nov. 11, 2022, 10:52 p.m. from Launch Complex 9A.

For more information about the launch, click the button.

Launch to space Long March 6A | Yunhai 3
Long March 6A | Yunhai 3

Agency: N/A

Status: Launch Successful

Launch date: Nov. 11, 2022, 10:52 p.m. UTC

Rocket: Long March 6A

Launch pad: Launch Complex 9A

Location: Taiyuan Satellite Launch Center, People's Republic of China

...

Latest news about this satellite

There are no fresh news available about this satellite. Check back as we update our databases every day.


Newsletter sign-up

Weekly statistics, charts and insights to help you stay on top of the space industry.